Flag for Germany Weather past 2 weeks in Bühl, Baden-Württemberg, Germany

Now
64 °F

Clear.


Feels Like: 64 °F
Forecast: 61 / 77 °F
Wind: 2 mph from Southwest

Location: Karlsruhe - Baden Wurttemberg

Current Time: Sep 18, 2014 at 1:50:38 AM

Latest Report: Sep 17, 2014 at 11:50 PM


Visibility: 10 mi

Pressure: 29.86 "Hg

Humidity: 83%

Dew point: 59 °F

Location of BühlLocation

Historic Weather in Bühl — Graph

°F

Bühl temperature yesterday

Maximum temperature yesterday: 77 °F (at 4:20 PM)
Minimum temperature yesterday: 55 °F (at 4:50 AM)
Average temperature yesterday: 65 °F

Past Weeks' High & Low Weather Summary

 TemperatureHumidityPressure
High81 °F (Sep 6, 5:20 PM)94% (Sep 4, 11:20 PM)30.18 "Hg (Sep 4, 11:20 PM)
Low50 °F (Sep 11, 4:50 AM)42% (Sep 6, 5:20 PM)29.83 "Hg (Sep 17, 4:20 PM)
Average64 °F77%30.01 "Hg
* Reported Sep 2 11:20 PM — Sep 17 11:50 PM, Bühl, Weather by CustomWeather, © 2014

Note: Actual official high and low records may vary slightly from our data, if they occured in-between our weather recording intervals... More about our weather records

Advertising

Bühl weather history for previous 24 hours

 ConditionsComfort  
Time TempWeatherWind HumidityBarometerVisibility
11:50 PM
Sep 17
64 °FClear.2 mph83%29.86 "Hg10 mi
11:20 PM66 °FClear.2 mph78%29.86 "Hg10 mi
10:50 PM66 °FClear.2 mph78%29.86 "Hg10 mi
10:20 PM66 °FClear.6 mph78%29.83 "Hg10 mi
9:50 PM66 °FClear.6 mph78%29.83 "Hg10 mi
9:20 PM66 °FClear.3 mph78%29.83 "Hg10 mi
8:50 PM66 °FClear.5 mph78%29.83 "Hg10 mi
8:20 PM68 °FSunny.5 mph73%29.83 "Hg10 mi
7:50 PM70 °FSunny.6 mph73%29.83 "Hg10 mi
7:20 PM72 °FSunny.6 mph65%29.83 "Hg10 mi
6:50 PM73 °FSunny.5 mph65%29.83 "Hg10 mi
6:20 PM75 °FSunny.6 mph57%29.83 "Hg10 mi
5:50 PM75 °FSunny.6 mph61%29.83 "Hg10 mi
5:20 PM75 °FSunny.7 mph57%29.83 "Hg10 mi
4:50 PM77 °FSunny.8 mph54%29.83 "Hg10 mi
4:20 PM77 °FPassing clouds.8 mph57%29.83 "HgN/A
3:50 PM75 °FSunny.7 mph61%29.86 "Hg10 mi
3:20 PM73 °FPassing clouds.7 mph65%29.86 "HgN/A
2:50 PM73 °FPassing clouds.6 mph61%29.86 "HgN/A
2:20 PM72 °FSunny.3 mph65%29.89 "Hg10 mi
1:50 PM70 °FSunny.2 mph64%29.89 "Hg10 mi
1:20 PM70 °FSunny.2 mph69%29.89 "Hg10 mi
12:50 PM66 °FClear.2 mph83%29.89 "Hg5 mi
12:20 PM63 °FFog.1 mph94%29.92 "Hg3 mi
11:50 AM61 °FFog.2 mph94%29.92 "Hg2 mi
11:20 AM59 °FFog.1 mph94%29.92 "Hg2 mi
10:50 AM57 °FFog.2 mph94%29.92 "Hg1 mi
10:20 AM57 °FFog.3 mph94%29.92 "Hg1 mi
9:50 AM57 °FFog.3 mph88%29.92 "Hg1 mi
9:20 AM57 °FFog.2 mph88%29.92 "Hg1 mi
8:50 AM57 °FFog.5 mph88%29.92 "Hg0 mi
8:20 AM57 °FFog.6 mph88%29.92 "Hg0 mi
7:50 AM57 °FFog.6 mph88%29.92 "Hg0 mi
7:20 AM57 °FFog.5 mph88%29.92 "Hg1 mi
6:50 AM57 °FFog.6 mph94%29.92 "Hg1 mi
6:20 AM57 °FFog.6 mph94%29.92 "Hg2 mi
5:50 AM55 °FFog.5 mph88%29.92 "Hg2 mi
5:20 AM55 °FFog.2 mph94%29.92 "Hg2 mi
4:50 AM55 °FFog.2 mph94%29.92 "Hg2 mi
Weather by CustomWeather, © 2014

See weather overviewHow to use our weather pages